Wind_Speed
17 15 13 13 16 17 18 21 23 24 25 25 25 24 23 21 20 18 15 15 12 11 12 11 10 10 11 13 14 14 14 13 13 12 12 14 15 14 15 15 14 15 15
15 18 17 11 13 15 18 20 22 23 24 25 25 24 25 25 23 21 17 16 15 14 13 12 11 11 13 15 16 17 16 17 16 16 18 16 18 18 19 20 19 19 21
13 18 18 18 17 17 19 19 19 22 25 25 23 24 26 26 25 23 21 18 18 17 17 15 14 14 15 16 17 18 19 20 20 19 20 21 22 21 23 23 24 24 25
14 15 19 22 23 22 20 19 21 22 23 25 25 24 24 24 25 24 23 22 21 21 19 19 19 19 18 17 19 21 21 21 21 22 22 22 23 26 26 27 28 29 29
15 14 19 22 24 29 23 19 19 21 23 24 25 25 26 26 26 26 25 25 24 24 22 23 23 23 23 21 20 21 23 24 23 24 24 25 25 28 30 30 32 32 33
13 12 13 13 12 22 22 21 22 21 22 23 24 27 28 29 29 28 29 28 27 25 24 24 26 26 23 22 23 24 25 27 27 27 28 28 28 29 33 33 34 35 35
14 13 12 12 17 20 24 24 24 25 27 27 28 29 29 31 31 32 32 31 29 27 25 27 29 29 29 28 28 29 28 30 31 32 31 33 32 32 33 34 36 38 38
12 13 13 13 14 17 19 23 25 26 26 25 25 28 30 31 32 32 35 34 31 30 29 29 30 31 32 32 34 32 32 33 34 36 36 37 37 37 36 38 39 39 40
12 13 14 15 14 15 15 16 17 20 23 23 26 27 30 31 33 35 37 34 33 33 32 32 33 33 35 37 36 36 36 36 39 40 39 38 41 42 42 43 43 44 44
16 13 14 15 16 15 15 15 15 15 17 19 22 26 29 33 38 42 41 34 32 34 35 35 35 33 37 38 41 41 39 40 42 43 42 43 44 45 46 47 48 48 48
22 18 16 15 16 16 16 17 15 14 15 17 18 20 21 26 26 29 35 32 32 33 37 41 39 40 42 44 43 42 41 42 43 44 47 45 46 47 48 52 52 51 50
27 23 21 21 20 19 18 19 19 19 18 18 19 20 21 20 20 21 28 32 33 36 38 42 43 43 44 46 46 45 46 44 45 49 52 52 51 50 53 54 53 54 52
27 27 25 25 24 24 23 23 23 23 24 24 23 22 23 23 23 23 25 27 31 34 34 36 38 39 43 43 44 47 46 46 47 45 46 54 54 51 57 60 57 56 55
27 28 27 26 26 26 26 27 27 26 27 28 28 28 27 25 26 27 28 29 29 31 33 34 37 37 38 35 36 40 43 46 45 42 40 40 44 45 41 42 46 50 49
25 24 23 26 24 26 26 27 29 31 32 31 31 30 30 29 27 26 27 29 30 32 34 35 35 35 35 35 37 39 40 40 41 41 41 41 41 42 41 41 42 41 42
26 24 23 23 24 24 28 29 30 31 31 31 30 29 30 30 30 28 28 28 29 31 32 33 34 35 35 36 38 40 41 41 42 43 43 43 42 41 40 41 42 42 42
31 29 24 24 23 25 25 22 23 26 29 28 28 29 29 31 31 30 31 31 31 32 33 34 36 37 39 41 43 44 45 46 48 48 48 48 49 48 46 45 44 43 42
34 31 27 25 25 24 22 20 24 25 27 26 26 26 28 29 30 31 32 34 35 37 38 39 40 42 43 45 47 49 50 51 52 53 53 54 53 53 51 50 48 47 45
34 33 30 28 27 25 24 24 24 24 24 23 23 23 23 25 27 31 33 35 36 38 39 39 39 37 37 39 42 44 44 43 42 43 43 44 46 48 48 47 46 46 45
48 40 33 31 26 25 23 22 20 19 21 20 20 21 23 25 29 31 30 26 22 22 23 24 25 28 31 29 29 31 31 30 30 30 31 32 34 35 37 36 38 38 38
32 36 33 31 25 22 22 20 20 20 23 24 23 22 21 24 25 20 17 18 19 21 22 22 23 25 25 24 23 24 27 30 30 31 32 33 32 25 29 27 27 26 29
26 29 27 23 22 22 20 19 20 22 25 24 21 20 20 20 16 13 12 11 12 12 14 17 17 17 18 20 22 24 25 27 27 28 29 26 28 27 27 26 24 25 26
29 27 23 21 21 21 19 19 21 21 22 23 20 22 22 22 19 16 14 13 14 15 15 16 16 17 16 18 19 20 20 23 24 25 25 23 24 25 20 20 17 12 11
32 27 22 21 23 19 18 22 21 19 23 23 23 22 23 23 21 16 13 16 15 15 15 15 16 15 16 16 17 17 17 17 18 19 20 20 21 20 19 20 18 16 16
29 19 22 23 19 16 19 22 20 21 22 22 18 16 17 17 18 17 18 18 17 15 15 15 16 16 16 15 16 16 16 16 16 17 18 18 17 16 15 14 15 13 11
16 21 22 19 17 17 19 19 21 21 21 19 18 17 18 18 18 19 19 19 17 17 16 17 17 17 17 18 18 18 18 17 17 17 16 15 16 16 15 13 12 11 10
Wind_Direction
239 242 248 240 228 228 232 226 223 221 220 227 226 224 227 229 230 233 238 252 257 261 265 266 271 266 259 257 262 264 269 273 275 269 264 271 278 283 285 282 279 274 270
241 235 235 250 243 232 236 238 233 230 230 231 236 235 234 233 234 238 237 246 259 264 264 268 269 266 265 269 266 267 266 267 267 273 274 272 275 277 279 279 277 277 274
246 237 234 241 244 240 229 234 237 231 233 235 238 242 238 238 240 242 243 243 252 257 263 268 271 270 266 268 274 275 272 268 267 266 267 272 274 274 275 277 278 276 277
245 236 245 252 244 237 233 228 232 232 234 237 239 241 239 235 240 242 245 248 250 258 262 265 269 271 271 265 263 268 269 268 266 266 267 264 270 272 273 276 276 276 279
253 250 248 256 246 237 231 228 232 239 241 246 248 246 244 237 236 242 244 248 250 254 262 263 264 269 266 268 266 266 268 270 269 266 265 266 268 268 270 272 275 277 279
259 256 252 258 232 219 238 243 242 241 244 246 248 251 248 249 246 244 246 244 247 252 256 261 261 262 269 268 269 267 265 266 269 271 272 271 265 268 273 275 277 277 278
268 262 259 250 242 243 245 253 253 254 253 254 254 252 253 253 249 248 247 246 244 243 245 251 258 261 263 264 265 267 267 268 269 269 267 268 270 268 269 271 275 279 281
278 271 269 263 254 252 253 258 258 259 259 255 256 252 250 251 255 253 250 250 250 249 248 250 252 258 257 260 264 267 272 271 270 267 268 269 271 271 273 275 274 274 277
278 273 263 262 260 262 263 261 259 261 261 257 259 259 256 258 257 255 254 252 255 258 259 258 257 258 261 263 266 267 269 271 269 268 271 271 272 274 274 273 273 274 278
270 268 271 270 268 267 271 274 274 272 268 261 262 262 260 260 268 254 248 251 253 257 261 263 260 268 271 271 269 268 268 268 269 271 270 271 272 272 273 275 276 278 278
265 267 270 272 273 274 275 277 276 276 280 279 280 277 277 272 280 236 234 243 252 255 257 257 261 271 273 271 268 271 269 268 271 270 271 270 270 272 274 276 277 278 279
258 266 271 275 278 276 276 278 281 284 282 281 285 286 282 277 274 262 251 257 261 262 263 264 268 270 273 270 268 269 272 272 279 275 273 274 274 275 275 275 276 278 278
254 261 265 268 269 273 273 275 278 280 283 284 282 280 282 282 277 269 267 269 269 266 266 269 270 274 275 272 265 267 275 277 280 280 278 274 276 282 278 272 275 278 274
257 259 260 266 268 270 273 277 278 276 276 278 279 278 277 274 273 272 270 269 269 269 270 273 275 278 279 278 270 269 273 277 280 282 278 278 280 281 288 282 278 281 277
254 257 261 264 270 273 275 278 281 284 284 281 277 274 272 272 272 270 269 268 267 267 269 272 274 276 278 277 276 277 277 279 281 281 280 280 280 280 282 281 282 282 280
255 257 255 257 264 274 277 278 280 281 280 276 271 271 269 268 268 270 271 271 273 273 274 275 276 278 278 278 279 280 280 281 282 283 283 283 282 282 282 281 281 280 280
253 258 261 261 266 273 275 280 282 279 276 277 273 271 270 269 267 268 270 274 275 275 276 277 279 280 281 282 282 281 280 280 279 280 279 279 280 281 279 279 279 279 279
241 244 255 261 266 266 268 277 281 280 279 277 275 273 272 271 271 273 273 274 275 276 277 279 282 283 284 283 282 282 282 282 283 283 284 284 282 281 279 278 277 277 276
241 242 247 252 260 262 268 277 279 277 275 274 276 277 277 275 274 274 275 277 279 281 281 282 283 284 286 287 286 286 287 288 290 289 288 286 284 283 281 280 277 275 274
241 239 245 248 247 258 271 275 273 273 273 271 271 274 275 277 278 279 280 281 283 285 286 288 289 293 297 303 303 298 294 296 298 300 300 298 293 285 277 272 270 268 266
263 260 259 231 240 251 262 269 273 277 277 272 270 269 273 283 284 279 281 285 287 288 291 295 297 297 299 301 304 301 296 294 296 302 303 300 307 302 283 284 273 267 258
261 264 236 220 236 246 260 272 276 274 275 269 268 265 270 286 287 285 295 302 302 301 306 313 322 328 326 316 306 303 302 301 304 304 305 308 312 317 308 294 281 275 264
252 244 213 229 242 248 261 275 276 275 269 263 261 266 267 272 278 288 287 296 303 307 311 314 321 326 332 333 332 326 317 312 312 309 308 306 306 303 311 291 296 281 268
252 204 222 235 243 252 269 276 277 271 269 261 266 265 265 266 266 265 277 292 296 302 307 313 318 325 333 338 338 341 340 337 332 329 323 315 312 313 319 320 322 325 320
209 201 228 234 239 256 269 274 271 265 262 263 260 256 261 264 264 270 284 288 292 297 303 309 315 321 324 330 333 335 337 337 334 331 327 324 326 329 323 316 310 310 306
209 223 228 234 244 257 265 270 266 261 255 251 252 257 262 266 271 281 285 285 288 290 293 297 303 309 313 317 320 321 321 321 321 320 321 324 326 324 321 315 307 301 297
Height
5878 5881 5883 5885 5886 5888 5891 5893 5896 5899 5901 5903 5905 5907 5909 5911 5913 5915 5916 5919 5920 5921 5922 5922 5923 5924 5924 5925 5926 5928 5928 5929 5929 5930 5931 5931 5931 5931 5931 5930 5930 5929 5929
5874 5877 5879 5881 5883 5885 5887 5890 5892 5895 5898 5900 5902 5904 5907 5909 5910 5912 5914 5915 5917 5918 5919 5920 5920 5920 5922 5923 5923 5924 5925 5925 5926 5926 5926 5928 5927 5928 5927 5927 5927 5926 5925
5871 5874 5876 5878 5880 5881 5883 5886 5888 5891 5894 5897 5899 5900 5902 5905 5907 5909 5911 5912 5914 5915 5916 5916 5917 5917 5918 5919 5920 5920 5921 5921 5921 5922 5923 5923 5923 5923 5923 5923 5923 5922 5921
5867 5869 5871 5873 5874 5877 5880 5882 5885 5886 5888 5891 5893 5895 5897 5899 5902 5904 5906 5908 5909 5910 5911 5912 5913 5914 5914 5914 5915 5916 5916 5917 5917 5917 5917 5917 5918 5917 5917 5917 5917 5917 5916
5864 5865 5866 5867 5868 5871 5875 5877 5880 5882 5883 5886 5889 5890 5892 5893 5895 5898 5899 5901 5903 5904 5905 5906 5908 5908 5908 5908 5908 5910 5911 5911 5911 5911 5911 5910 5911 5909 5909 5910 5910 5910 5910
5861 5861 5862 5862 5863 5868 5872 5874 5876 5877 5878 5879 5882 5884 5887 5889 5890 5892 5893 5895 5897 5898 5899 5901 5902 5902 5903 5903 5903 5903 5904 5905 5905 5906 5905 5903 5903 5903 5901 5902 5902 5901 5902
5857 5858 5859 5860 5862 5864 5866 5868 5870 5871 5873 5875 5877 5879 5880 5882 5884 5885 5886 5888 5889 5891 5893 5894 5894 5896 5897 5897 5897 5897 5898 5898 5898 5897 5897 5895 5895 5895 5895 5893 5893 5893 5892
5854 5855 5856 5856 5857 5859 5860 5861 5863 5864 5866 5868 5870 5872 5874 5875 5876 5877 5878 5880 5882 5883 5884 5886 5888 5888 5889 5889 5889 5891 5892 5891 5891 5889 5889 5887 5886 5885 5887 5885 5884 5883 5882
5852 5853 5853 5854 5854 5855 5855 5856 5857 5859 5859 5860 5862 5864 5866 5867 5868 5869 5871 5874 5876 5877 5877 5878 5879 5880 5880 5881 5882 5883 5883 5883 5880 5881 5880 5880 5878 5877 5875 5874 5873 5873 5874
5849 5849 5850 5850 5851 5851 5852 5852 5852 5853 5854 5855 5856 5856 5857 5858 5858 5858 5862 5865 5867 5869 5870 5870 5870 5872 5871 5873 5872 5872 5873 5872 5870 5869 5871 5870 5869 5868 5867 5865 5862 5862 5861
5844 5845 5846 5847 5848 5847 5848 5849 5849 5849 5850 5850 5850 5850 5850 5850 5847 5846 5851 5856 5859 5860 5861 5860 5862 5863 5862 5862 5861 5862 5862 5861 5860 5859 5858 5860 5858 5857 5856 5854 5852 5851 5850
5839 5840 5841 5843 5843 5844 5844 5845 5844 5844 5845 5845 5844 5844 5844 5844 5843 5844 5847 5848 5850 5851 5851 5851 5852 5853 5851 5850 5849 5850 5850 5849 5849 5849 5847 5847 5847 5846 5844 5841 5840 5837 5837
5833 5834 5836 5837 5838 5839 5839 5840 5840 5840 5840 5840 5840 5839 5839 5838 5838 5839 5839 5840 5841 5841 5841 5841 5840 5840 5839 5838 5837 5838 5838 5838 5837 5835 5834 5835 5834 5834 5828 5827 5825 5825 5825
5826 5827 5828 5830 5831 5832 5833 5834 5835 5835 5835 5834 5833 5833 5832 5833 5833 5832 5832 5832 5832 5832 5832 5832 5832 5831 5830 5828 5827 5827 5827 5825 5825 5823 5822 5821 5821 5820 5815 5813 5814 5812 5810
5818 5819 5820 5821 5823 5824 5824 5825 5826 5826 5826 5826 5826 5826 5826 5826 5826 5826 5826 5825 5824 5824 5824 5823 5823 5822 5821 5820 5819 5818 5816 5815 5813 5812 5811 5810 5808 5807 5805 5803 5801 5800 5799
5811 5811 5810 5813 5815 5816 5817 5817 5817 5817 5817 5817 5817 5818 5818 5818 5818 5817 5817 5817 5817 5817 5816 5815 5814 5813 5812 5811 5810 5808 5806 5804 5803 5801 5799 5797 5796 5795 5793 5792 5790 5789 5787
5803 5804 5804 5805 5806 5807 5809 5808 5808 5809 5809 5809 5809 5810 5810 5811 5811 5810 5809 5808 5808 5808 5807 5806 5805 5804 5802 5801 5799 5797 5796 5793 5791 5789 5787 5785 5783 5782 5781 5780 5778 5776 5775
5791 5795 5798 5799 5800 5801 5802 5802 5802 5802 5802 5801 5801 5802 5803 5803 5802 5801 5800 5800 5799 5798 5797 5796 5794 5792 5790 5788 5786 5784 5781 5779 5777 5774 5771 5769 5768 5766 5766 5764 5764 5763 5761
5785 5789 5792 5792 5793 5794 5794 5794 5794 5794 5795 5795 5795 5795 5796 5796 5794 5793 5791 5790 5789 5787 5786 5784 5782 5780 5778 5775 5772 5769 5767 5764 5762 5760 5758 5755 5752 5750 5748 5747 5747 5746 5746
5776 5779 5783 5784 5785 5787 5788 5788 5788 5788 5789 5789 5788 5789 5789 5789 5787 5785 5783 5781 5780 5779 5777 5775 5773 5770 5768 5765 5762 5759 5757 5755 5753 5751 5748 5746 5742 5739 5736 5734 5732 5731 5732
5766 5768 5770 5774 5777 5780 5782 5782 5782 5781 5783 5783 5782 5782 5783 5782 5780 5778 5776 5774 5774 5773 5771 5769 5767 5763 5760 5758 5755 5753 5750 5748 5746 5743 5741 5738 5735 5731 5728 5727 5724 5722 5722
5756 5759 5761 5765 5770 5773 5774 5775 5775 5774 5776 5776 5776 5776 5777 5776 5774 5773 5771 5769 5769 5768 5766 5764 5762 5758 5755 5752 5750 5747 5744 5741 5739 5736 5733 5731 5727 5724 5721 5719 5716 5714 5712
5749 5751 5755 5759 5763 5766 5767 5768 5768 5767 5769 5770 5769 5770 5771 5771 5770 5768 5767 5766 5765 5764 5762 5760 5758 5755 5752 5748 5745 5742 5739 5736 5734 5730 5728 5725 5723 5720 5716 5714 5712 5710 5708
5741 5745 5749 5753 5756 5758 5759 5761 5760 5760 5763 5764 5764 5764 5765 5764 5764 5763 5762 5762 5760 5759 5758 5757 5754 5751 5748 5746 5744 5740 5736 5733 5730 5727 5724 5722 5719 5717 5714 5712 5710 5708 5707
5733 5738 5744 5748 5749 5750 5752 5753 5753 5755 5756 5757 5757 5757 5758 5758 5759 5757 5756 5756 5755 5753 5752 5751 5750 5747 5745 5742 5740 5737 5734 5731 5729 5726 5723 5721 5717 5715 5712 5710 5709 5707 5705
5729 5735 5739 5740 5741 5743 5745 5746 5747 5749 5750 5750 5751 5751 5751 5752 5752 5751 5751 5750 5749 5748 5747 5746 5745 5742 5740 5738 5736 5734 5731 5729 5726 5724 5721 5718 5716 5713 5711 5709 5707 5705 5704